User: anonymous   Login
Location: Unspecified
(0.0000°N, 0.0000°E)
Time: 07:21:39
(UTC+00:00)
Language:

CHUBUSAT 2 - Orbit

View from above orbital plane
View from above orbital plane
View from above satellite
View from above satellite

Ground track
Ground track

The orbit data is extracted from the following two-line orbital elements,

1 41338U 16012B   23272.37582962  .00005258  00000-0  35625-3 0  9991
2 41338  31.0021 271.2759 0012042 139.0127 221.1416 15.04886843418088
Epoch (UTC): 29 September 2023 09:01:11
Eccentricity: 0.0012042
inclination: 31.0021°
perigee height: 543 km
apogee height: 560 km
right ascension of ascending node: 271.2759°
argument of perigee: 139.0127°
revolutions per day: 15.04886843
mean anomaly at epoch: 221.1416°
orbit number at epoch: 41808

The dashed part of the orbit path shows where the satellite is in the earth's shadow,  

DLR